WetterOnline ( https://www.wetteronline.de )

Wetter aktuell Hasselfelde

Aktuelles Wetter: Wernigerode (240m)

6-stündlich | Neueste Meldungen
Ortszeit Temperatur Wetter
Mo, 26.02. 7:00 0.0° C bedeckt
Mo, 26.02. 1:00 0.4° C wolkig
So, 25.02. 19:00 2.4° C wolkenlos
So, 25.02. 13:00 5.8° C bedeckt
So, 25.02. 7:00 1.5° C wolkig
So, 25.02. 1:00 3.6° C leicht bewölkt
Sa, 24.02. 19:00 5.3° C wolkenlos
Sa, 24.02. 13:00 8.4° C Sprühregen
Ortszeit Temperatur Wetter
Mo, 26.02. 11:30 4.2° C bewölkt
Mo, 26.02. 11:20 4.2° C bewölkt
Mo, 26.02. 11:10 4.2° C bedeckt
Mo, 26.02. 11:00 3.8° C wolkig
Mo, 26.02. 10:50 3.8° C wolkig
Mo, 26.02. 10:40 3.6° C bedeckt
Mo, 26.02. 10:30 3.3° C bewölkt
Mo, 26.02. 10:00 3.0° C bedeckt
Mo, 26.02. 9:30 2.6° C wolkig
Mo, 26.02. 9:00 1.9° C bedeckt
Mo, 26.02. 8:30 1.2° C bedeckt
Ortszeit Relative Feuchte Sichtweite
Mo, 26.02. 7:00 92% 35 km
Mo, 26.02. 1:00 88% 60 km
So, 25.02. 19:00 81% 40 km
So, 25.02. 13:00 70% >70 km
So, 25.02. 7:00 80% >70 km
So, 25.02. 1:00 71% 65 km
Sa, 24.02. 19:00 69% >70 km
Sa, 24.02. 13:00 58% 40 km
Ortszeit Relative Feuchte Sichtweite
Mo, 26.02. 11:30 79% 26 km
Mo, 26.02. 11:20 79% -
Mo, 26.02. 11:10 80% -
Mo, 26.02. 11:00 82% 25 km
Mo, 26.02. 10:50 82% -
Mo, 26.02. 10:40 83% -
Mo, 26.02. 10:30 82% 24 km
Mo, 26.02. 10:00 85% 25 km
Mo, 26.02. 9:30 85% 30 km
Mo, 26.02. 9:00 89% 25 km
Mo, 26.02. 8:30 90% 26 km
Ortszeit Niederschlagsmenge Niederschlagsart
Mo, 26.02. 7:00 0.0 l/m2 in 12 Std. -
Mo, 26.02. 1:00 0.0 l/m2 in 6 Std. -
So, 25.02. 19:00 0.1 l/m2 in 12 Std. Regen
So, 25.02. 13:00 0.1 l/m2 in 6 Std. Regen
So, 25.02. 7:00 0.0 l/m2 in 12 Std. -
So, 25.02. 1:00 0.0 l/m2 in 6 Std. -
Sa, 24.02. 19:00 0.1 l/m2 in 12 Std. Regen
Sa, 24.02. 13:00 0.1 l/m2 in 6 Std. Sprühregen
Ortszeit Niederschlagsmenge Niederschlagsart
Mo, 26.02. 11:30 0.0 l/m2 in 30 Min -
Mo, 26.02. 11:20 keine Meldung -
Mo, 26.02. 11:10 keine Meldung -
Mo, 26.02. 11:00 0.0 l/m2 in 1 Std. -
Mo, 26.02. 10:50 keine Meldung -
Mo, 26.02. 10:40 keine Meldung -
Mo, 26.02. 10:30 0.0 l/m2 in 30 Min -
Mo, 26.02. 10:00 0.0 l/m2 in 1 Std. -
Mo, 26.02. 9:30 0.0 l/m2 in 30 Min -
Mo, 26.02. 9:00 0.0 l/m2 in 1 Std. -
Mo, 26.02. 8:30 0.0 l/m2 in 30 Min -
Ortszeit Stärke Spitze Richtung
km/h Bft. km/h Grad Sektor
Mo, 26.02. 7:00 2 1 9 80° O
Mo, 26.02. 1:00 4 1 14 140° SO
So, 25.02. 19:00 6 1 26 170° S
So, 25.02. 13:00 7 2 61 120° SO
So, 25.02. 7:00 13 3 20 80° O
So, 25.02. 1:00 7 2 32 190° S
Sa, 24.02. 19:00 4 1 40 140° SO
Sa, 24.02. 13:00 14 3 36 190° S
Ortszeit Stärke Spitze Richtung
km/h Bft. km/h Grad Sektor
Mo, 26.02. 11:30 4 1 7 70° O
Mo, 26.02. 11:20 4 1 - 70° O
Mo, 26.02. 11:10 4 1 - 30° NO
Mo, 26.02. 11:00 4 1 7 80° O
Mo, 26.02. 10:50 4 1 - 80° O
Mo, 26.02. 10:40 4 1 - 80° O
Mo, 26.02. 10:30 4 1 7 110° O
Mo, 26.02. 10:00 0 0 7 - -
Mo, 26.02. 9:30 4 1 7 50° NO
Mo, 26.02. 9:00 2 1 7 170° S
Mo, 26.02. 8:30 4 1 7 10° N
Ortszeit Untergrenze Bedeckung Gattung
total tief tief mittel hoch
Mo, 26.02. 7:00 3000 m 8/8 8/8 - - -
Mo, 26.02. 1:00 1800 m 7/8 3/8 - - -
So, 25.02. 19:00 - 0/8 0/8 - - -
So, 25.02. 13:00 630 m 8/8 8/8 - - -
So, 25.02. 7:00 570 m 8/8 2/8 - - -
So, 25.02. 1:00 7800 m 5/8 0/8 - - -
Sa, 24.02. 19:00 - 0/8 0/8 - - -
Sa, 24.02. 13:00 990 m 7/8 7/8 - - -
Ortszeit Bedeckungsgrad in Achtel und Wolkenuntergrenze
Mo, 26.02. 11:30 7(2400m) 8(3300m) 8(3900m)
Mo, 26.02. 11:20 7(2400m) 8(3300m) 8(3900m)
Mo, 26.02. 11:10 8
Mo, 26.02. 11:00 2(2100m) 8(3300m) 8(3900m)
Mo, 26.02. 10:50 2(2100m) 8(3300m) 8(3900m)
Mo, 26.02. 10:40 8
Mo, 26.02. 10:30 2(1800m) 5(2100m) 8(3000m)
Mo, 26.02. 10:00 1(1800m) 8(2400m)
Mo, 26.02. 9:30 1(1500m) 8(3000m) 8(3900m)
Mo, 26.02. 9:00 3(1440m) 7(1800m) 8(2400m)
Mo, 26.02. 8:30 8(1800m)
Ortszeit Luftdruck NN (hPa) Tendenz (hPa in 3 Std.)
Mo, 26.02. 7:00 1004 + 0,7
Mo, 26.02. 1:00 1004 - 0,6
So, 25.02. 19:00 1005 + 0,2
So, 25.02. 13:00 1005 0,0
So, 25.02. 7:00 1006 - 1,2
So, 25.02. 1:00 1007 + 1,2
Sa, 24.02. 19:00 1005 + 1,7
Sa, 24.02. 13:00 1002 + 1,1
Ortszeit Luftdruck NN (hPa) Tendenz (hPa in 3 Std.)
Mo, 26.02. 11:30 1006 + 0,6
Mo, 26.02. 11:20 1006 keine Meldung
Mo, 26.02. 11:10 1006 keine Meldung
Mo, 26.02. 11:00 1006 + 0,8
Mo, 26.02. 10:50 1006 keine Meldung
Mo, 26.02. 10:40 1005 keine Meldung
Mo, 26.02. 10:30 1006 + 1,2
Mo, 26.02. 10:00 1006 + 1,4
Mo, 26.02. 9:30 1005 + 1,4
Mo, 26.02. 9:00 1005 + 1,4
Mo, 26.02. 8:30 1005 + 1,3
Ortszeit Schneehöhe (cm)
Mo, 26.02. 7:00 0
Mo, 26.02. 1:00 0
So, 25.02. 19:00 0
So, 25.02. 13:00 0
So, 25.02. 7:00 0
So, 25.02. 1:00 0
Sa, 24.02. 19:00 0
Sa, 24.02. 13:00 0
Ortszeit Schneehöhe (cm)
Mo, 26.02. 11:30 0
Mo, 26.02. 11:20 0
Mo, 26.02. 11:10 -
Mo, 26.02. 11:00 0
Mo, 26.02. 10:50 0
Mo, 26.02. 10:40 -
Mo, 26.02. 10:30 0
Mo, 26.02. 10:00 0
Mo, 26.02. 9:30 0
Mo, 26.02. 9:00 0
Mo, 26.02. 8:30 0
Link zu dieser Seite / Seite empfehlen

Das Wetter in ...